Weather History for Henderson, NV

Change the Weather History Date:

Wednesday, June 26, 2013

  Actual Average (KLAS) Record (KLAS)
Temperature  
Mean Temperature 92 °F 90 °F  
Max Temperature 104 °F 102 °F 114 °F (1970)
Min Temperature 79 °F 78 °F 56 °F (1944)
Degree Days  
Heating Degree Days 0 0  
Month to date heating degree days 0  
Since 1 June heating degree days 0  
Since 1 July heating degree days 1950  
Cooling Degree Days 26 25  
Month to date cooling degree days 548  
Year to date cooling degree days 1098  
Since 1 June cooling degree days 548  
Growing Degree Days 42 (Base 50)    
Moisture  
Dew Point 47 °F    
Average Humidity 22    
Maximum Humidity 33    
Minimum Humidity 13    
Precipitation  
Precipitation 0.00 in 0.00 in 0.03 in (1964)
Month to date precipitation 0.06  
Year to date precipitation 2.07  
Snow  
Snow 0.00 in 0.00 in 0.00 in ()
Month to date snowfall 0.0  
Since 1 June snowfall 0.0  
Since 1 July snowfall 0.3  
Snow Depth -    
Sea Level Pressure  
Sea Level Pressure 29.86 in    
Wind  
Wind Speed 12 mph (SSW)    
Max Wind Speed 17 mph    
Max Gust Speed 23 mph    
Visibility 10 miles    
Events      
T = Trace of Precipitation, MM = Missing Value Source: NWS Daily Summary

Daily Weather History Graph

Daily Weather History Graph

Search for Another Location

Airport:

Trip Planner

Search our weather history database for the weather conditions in past years. The results will help you decide how hot, cold, wet, or windy it might be!

Date:

Astronomy

Jun. 26, 2013 Rise Set
Actual Time 5:25 AM PDT 8:01 PM PDT
Civil Twilight 4:55 AM PDT 8:31 PM PDT
Nautical Twilight 4:17 AM PDT 9:08 PM PDT
Astronomical Twilight 3:36 AM PDT 9:50 PM PDT
Moon 10:35 PM PDT (6/26) 9:14 AM PDT (6/26)
Length of Visible Light 15h 35m
Length of Day
14h 35m
Waning Gibbous, 84% of the Moon is Illuminated
Jun 26
Waning Gibbous
Jun 29
Last Quarter
Jul 8
New
Jul 15
First Quarter
Jul 22
Full

Hourly Weather History & Observations

Time (PDT) Temp. Dew Point Humidity Pressure Visibility Wind Dir Wind Speed Gust Speed Precip Events Conditions
12:56 AM 84.9 °F 46.9 °F 27% 29.81 in 10.0 mi South 16.1 mph - N/A   Clear
1:56 AM 82.9 °F 46.9 °F 28% 29.82 in 10.0 mi South 15.0 mph - N/A   Clear
2:56 AM 82.9 °F 47.8 °F 29% 29.84 in 10.0 mi South 11.5 mph - N/A   Clear
3:56 AM 79.9 °F 47.8 °F 32% 29.86 in 10.0 mi SW 8.1 mph - N/A   Clear
4:56 AM 79.9 °F 47.8 °F 32% 29.87 in 10.0 mi South 9.2 mph - N/A   Clear
5:56 AM 81.0 °F 48.9 °F 33% 29.88 in 10.0 mi South 11.5 mph - N/A   Clear
6:56 AM 82.9 °F 50.0 °F 32% 29.89 in 10.0 mi South 8.1 mph - N/A   Clear
7:56 AM 86.9 °F 50.0 °F 28% 29.90 in 10.0 mi SSW 12.7 mph - N/A   Clear
8:56 AM 90.0 °F 50.0 °F 25% 29.91 in 10.0 mi SSW 10.4 mph - N/A   Clear
9:56 AM 92.8 °F 48.9 °F 22% 29.91 in 10.0 mi SW 13.8 mph - N/A   Clear
10:56 AM 95.0 °F 48.9 °F 21% 29.91 in 10.0 mi Variable 6.9 mph - N/A   Clear
11:56 AM 97.9 °F 48.9 °F 19% 29.89 in 10.0 mi South 12.7 mph - N/A   Clear
12:56 PM 99.9 °F 46.9 °F 17% 29.88 in 10.0 mi West 10.4 mph 16.1 mph N/A   Clear
1:56 PM 101.8 °F 45.9 °F 15% 29.86 in 10.0 mi WSW 12.7 mph 18.4 mph N/A   Clear
2:56 PM 104.0 °F 45.9 °F 14% 29.84 in 10.0 mi SW 17.3 mph 23.0 mph N/A   Clear
3:56 PM 104.0 °F 45.9 °F 14% 29.83 in 10.0 mi WSW 9.2 mph - N/A   Clear
4:56 PM 104.0 °F 45.0 °F 14% 29.82 in 10.0 mi West 15.0 mph 23.0 mph N/A   Clear
5:56 PM 104.0 °F 43.0 °F 13% 29.81 in 10.0 mi WSW 10.4 mph - N/A   Clear
6:56 PM 101.8 °F 41.9 °F 13% 29.81 in 10.0 mi WSW 15.0 mph - N/A   Clear
7:56 PM 99.0 °F 43.0 °F 15% 29.83 in 10.0 mi WSW 9.2 mph - N/A   Clear
8:56 PM 95.9 °F 43.9 °F 17% 29.85 in 10.0 mi SSW 11.5 mph - N/A   Clear
9:56 PM 91.9 °F 45.0 °F 20% 29.87 in 10.0 mi South 8.1 mph - N/A   Clear
10:56 PM 91.9 °F 45.0 °F 20% 29.88 in 10.0 mi South 10.4 mph - N/A   Clear
11:56 PM 88.0 °F 43.9 °F 21% 29.89 in 10.0 mi SSW 9.2 mph - N/A   Clear